Weather History for Ravenna, OH

Change the Weather History Date:

Tuesday, January 21, 2014

  Actual Average (KCAK) Record (KCAK)
Temperature  
Mean Temperature 10 °F 26 °F  
Max Temperature 18 °F 33 °F 69 °F (1906)
Min Temperature 1 °F 19 °F -24 °F (1985)
Degree Days  
Heating Degree Days 56 39  
Month to date heating degree days 817  
Since 1 July heating degree days 3147  
Cooling Degree Days 0 0  
Month to date cooling degree days 0  
Year to date cooling degree days 0  
Moisture  
Dew Point 1 °F    
Average Humidity 67    
Maximum Humidity 84    
Minimum Humidity 47    
Precipitation  
Precipitation 0.00 in 0.09 in 2.83 in (1959)
Month to date precipitation 1.80  
Year to date precipitation 1.80  
Snow  
Snow 0.00 in 0.40 in - ()
Month to date snowfall 8.4  
Since 1 July snowfall 22.0  
Snow Depth -    
Sea Level Pressure  
Sea Level Pressure 29.98 in    
Wind  
Wind Speed 9 mph (NNE)    
Max Wind Speed 15 mph    
Max Gust Speed 23 mph    
Visibility 9 miles    
Events Snow    
T = Trace of Precipitation, MM = Missing Value Source: NWS Daily Summary

Daily Weather History Graph

Daily Weather History Graph

Search for Another Location

Airport:

Trip Planner

Search our weather history database for the weather conditions in past years. The results will help you decide how hot, cold, wet, or windy it might be!

Date:

Astronomy

Jan. 21, 2014 Rise Set
Actual Time 7:45 AM EST 5:28 PM EST
Civil Twilight 7:15 AM EST 5:58 PM EST
Nautical Twilight 6:41 AM EST 6:31 PM EST
Astronomical Twilight 6:08 AM EST 7:04 PM EST
Moon 11:03 PM EST (1/21) 10:10 AM EST (1/21)
Length of Visible Light 10h 42m
Length of Day
9h 42m
Waning Gibbous, 75% of the Moon is Illuminated
Jan 21
Waning Gibbous
Jan 24
Last Quarter
Jan 30
New
Feb 6
First Quarter
Feb 14
Full

Hourly Weather History & Observations

Time (EST) Temp. Windchill Dew Point Humidity Pressure Visibility Wind Dir Wind Speed Gust Speed Precip Events Conditions
12:15 AM 18.0 °F 8.7 °F 11.8 °F 77% 29.91 in 7.0 mi NNE 6.9 mph - N/A Snow Light Snow
12:35 AM 17.6 °F 9.3 °F 12.6 °F 81% 29.92 in 7.0 mi NE 5.8 mph - N/A Snow Light Snow
12:55 AM 18.0 °F 9.8 °F 13.5 °F 83% 29.92 in 10.0 mi NE 5.8 mph - N/A Snow Light Snow
1:15 AM 17.1 °F 5.0 °F 12.2 °F 81% 29.91 in 10.0 mi ENE 10.4 mph - N/A   Overcast
1:35 AM 16.7 °F 5.3 °F 11.8 °F 81% 29.91 in 10.0 mi NE 9.2 mph - N/A   Overcast
1:55 AM 16.5 °F 3.6 °F 11.8 °F 82% 29.90 in 7.0 mi ENE 11.5 mph - N/A Snow Light Snow
2:15 AM 16.0 °F 7.4 °F 10.9 °F 81% 29.91 in 10.0 mi NNE 5.8 mph - N/A Snow Light Snow
2:35 AM 15.8 °F 6.1 °F 10.6 °F 80% 29.91 in 10.0 mi NE 6.9 mph - N/A   Overcast
2:54 AM 15.8 °F 2.7 °F 10.8 °F 80% 29.91 in 10.0 mi NE 11.5 mph 18.4 mph N/A Snow Light Snow
3:15 AM 15.4 °F 3.8 °F 10.0 °F 79% 29.92 in 10.0 mi ENE 9.2 mph - N/A   Overcast
3:35 AM 15.3 °F 2.0 °F 9.3 °F 77% 29.92 in 10.0 mi NE 11.5 mph - N/A   Overcast
3:55 AM 14.9 °F 2.3 °F 8.6 °F 76% 29.91 in 5.0 mi ENE 10.4 mph - N/A Snow Light Snow
4:15 AM 14.5 °F 1.9 °F 9.3 °F 80% 29.91 in 1.8 mi NNE 10.4 mph - N/A Snow Light Snow
4:35 AM 14.0 °F 2.9 °F 9.5 °F 82% 29.90 in 2.0 mi NE 8.1 mph - N/A Snow Light Snow
4:55 AM 13.6 °F 2.5 °F 9.5 °F 84% 29.90 in 4.0 mi NNE 8.1 mph - N/A Snow Light Snow
5:15 AM 13.3 °F 2.0 °F 8.8 °F 82% 29.90 in 5.0 mi NNE 8.1 mph - N/A Snow Light Snow
5:35 AM 13.3 °F 3.0 °F 9.0 °F 83% 29.90 in 7.0 mi NNE 6.9 mph - N/A Snow Light Snow
5:55 AM 13.1 °F 1.8 °F 8.8 °F 83% 29.92 in 7.0 mi NNE 8.1 mph - N/A Snow Light Snow
6:15 AM 13.1 °F 1.8 °F 8.4 °F 82% 29.92 in 7.0 mi NE 8.1 mph - N/A Snow Light Snow
6:35 AM 13.1 °F 4.0 °F 8.2 °F 81% 29.92 in 10.0 mi NNE 5.8 mph - N/A Snow Light Snow
6:55 AM 12.9 °F 1.6 °F 8.1 °F 81% 29.92 in 5.0 mi NNE 8.1 mph - N/A Snow Light Snow
7:15 AM 12.4 °F 3.1 °F 7.5 °F 81% 29.93 in 7.0 mi North 5.8 mph - N/A Snow Light Snow
7:35 AM 12.2 °F 0.7 °F 6.8 °F 79% 29.95 in 10.0 mi NNE 8.1 mph - N/A   Overcast
7:55 AM 12.2 °F 0.7 °F 6.8 °F 79% 29.95 in 10.0 mi NNE 8.1 mph - N/A   Overcast
8:15 AM 11.8 °F 1.3 °F 5.7 °F 76% 29.95 in 10.0 mi NNE 6.9 mph - N/A   Overcast
8:35 AM 11.8 °F -0.7 °F 3.9 °F 71% 29.96 in 10.0 mi NNE 9.2 mph - N/A   Overcast
8:55 AM 12.0 °F -1.3 °F 3.2 °F 68% 29.96 in 10.0 mi NNE 10.4 mph - N/A   Overcast
9:15 AM 12.0 °F -2.0 °F 2.3 °F 65% 29.97 in 10.0 mi NNE 11.5 mph 17.3 mph N/A   Overcast
9:35 AM 12.0 °F -1.3 °F 2.3 °F 65% 29.97 in 10.0 mi NE 10.4 mph 17.3 mph N/A   Overcast
9:55 AM 13.1 °F 0.1 °F 3.6 °F 66% 29.97 in 10.0 mi NNE 10.4 mph 19.6 mph N/A   Overcast
10:15 AM 13.6 °F 1.6 °F 3.7 °F 65% 29.98 in 10.0 mi NE 9.2 mph 18.4 mph N/A   Overcast
10:35 AM 13.1 °F 0.1 °F 3.2 °F 65% 29.98 in 10.0 mi NNE 10.4 mph 16.1 mph N/A   Overcast
10:55 AM 14.0 °F -0.2 °F 2.3 °F 60% 29.98 in 10.0 mi North 12.7 mph 18.4 mph N/A   Scattered Clouds
11:15 AM 15.4 °F 1.6 °F 3.0 °F 58% 29.98 in 10.0 mi North 12.7 mph 17.3 mph N/A   Mostly Cloudy
11:35 AM 14.7 °F 0.7 °F 1.6 °F 56% 29.98 in 10.0 mi North 12.7 mph 18.4 mph N/A   Mostly Cloudy
11:54 AM 15.3 °F 1.4 °F 1.4 °F 54% 29.98 in 10.0 mi NNE 12.7 mph 21.9 mph N/A   Scattered Clouds
12:15 PM 13.6 °F -1.9 °F 1.4 °F 58% 29.98 in 10.0 mi North 15.0 mph 20.7 mph N/A   Mostly Cloudy
12:35 PM 15.1 °F 1.8 °F 2.8 °F 58% 29.97 in 10.0 mi North 11.5 mph 18.4 mph N/A   Mostly Cloudy
12:55 PM 12.9 °F -2.8 °F 1.2 °F 60% 29.98 in 10.0 mi North 15.0 mph 20.7 mph N/A   Mostly Cloudy
1:15 PM 13.3 °F -2.4 °F 0.1 °F 56% 29.97 in 10.0 mi North 15.0 mph 20.7 mph N/A   Mostly Cloudy
1:35 PM 13.3 °F -1.8 °F 0.7 °F 57% 29.97 in 10.0 mi North 13.8 mph 20.7 mph N/A   Mostly Cloudy
1:55 PM 12.6 °F -0.6 °F 0.3 °F 58% 29.97 in 10.0 mi North 10.4 mph 19.6 mph N/A   Overcast
2:15 PM 12.0 °F -3.4 °F -0.8 °F 57% 29.97 in 10.0 mi NNE 13.8 mph 23.0 mph N/A   Overcast
2:35 PM 12.0 °F -2.7 °F -2.7 °F 52% 29.97 in 10.0 mi North 12.7 mph 19.6 mph N/A   Mostly Cloudy
2:55 PM 12.2 °F -1.8 °F -3.1 °F 50% 29.97 in 10.0 mi NNE 11.5 mph 20.7 mph N/A   Scattered Clouds
3:15 PM 12.2 °F -3.7 °F -4.0 °F 48% 29.98 in 10.0 mi North 15.0 mph 19.6 mph N/A   Scattered Clouds
3:35 PM 11.8 °F -3.0 °F -3.5 °F 50% 29.98 in 10.0 mi North 12.7 mph 18.4 mph N/A   Scattered Clouds
3:54 PM 11.1 °F -3.2 °F -4.2 °F 50% 29.99 in 10.0 mi North 11.5 mph 20.7 mph N/A   Scattered Clouds
4:15 PM 10.6 °F -5.2 °F -4.5 °F 51% 30.00 in 10.0 mi North 13.8 mph 21.9 mph N/A   Clear
4:35 PM 9.7 °F -6.3 °F -5.8 °F 50% 30.01 in 10.0 mi North 13.8 mph 18.4 mph N/A   Clear
4:55 PM 9.0 °F -4.2 °F -7.6 °F 47% 30.02 in 10.0 mi North 9.2 mph 17.3 mph N/A   Clear
5:15 PM 7.9 °F -6.4 °F -7.8 °F 49% 30.03 in 10.0 mi North 10.4 mph 18.4 mph N/A   Clear
5:35 PM 7.0 °F -8.3 °F -8.5 °F 49% 30.04 in 10.0 mi North 11.5 mph - N/A   Clear
5:54 PM 6.1 °F -6.8 °F -7.6 °F 53% 30.04 in 10.0 mi North 8.1 mph - N/A   Clear
6:15 PM 5.9 °F -7.0 °F -7.1 °F 55% 30.05 in 10.0 mi North 8.1 mph - N/A   Clear
6:35 PM 5.5 °F -6.3 °F -6.7 °F 57% 30.06 in 10.0 mi North 6.9 mph 11.5 mph N/A   Clear
6:55 PM 4.8 °F -8.3 °F -6.7 °F 59% 30.06 in 10.0 mi North 8.1 mph - N/A   Clear
7:15 PM 4.6 °F -7.4 °F -6.5 °F 60% 30.07 in 10.0 mi North 6.9 mph - N/A   Clear
7:35 PM 4.1 °F -6.7 °F -6.2 °F 63% 30.07 in 10.0 mi NNW 5.8 mph - N/A   Clear
7:55 PM 3.6 °F -5.7 °F -6.3 °F 64% 30.07 in 10.0 mi NNW 4.6 mph - N/A   Clear
8:15 PM 3.6 °F -7.3 °F -6.2 °F 64% 30.07 in 10.0 mi NNW 5.8 mph - N/A   Clear
8:35 PM 3.2 °F -6.2 °F -6.2 °F 65% 30.07 in 10.0 mi NNW 4.6 mph - N/A   Clear
8:55 PM 3.2 °F -4.2 °F -6.0 °F 66% 30.07 in 10.0 mi NW 3.5 mph - N/A   Clear
9:15 PM 3.0 °F -6.4 °F -6.0 °F 66% 30.07 in 10.0 mi NNW 4.6 mph - N/A   Clear
9:35 PM 3.0 °F -8.0 °F -6.3 °F 65% 30.07 in 10.0 mi NNW 5.8 mph - N/A   Clear
9:55 PM 2.7 °F -4.8 °F -6.7 °F 65% 30.07 in 10.0 mi NNW 3.5 mph - N/A   Clear
10:15 PM 2.5 °F -8.6 °F -6.3 °F 67% 30.07 in 10.0 mi NNW 5.8 mph - N/A   Clear
10:35 PM 2.3 °F -5.2 °F -6.2 °F 68% 30.07 in 10.0 mi NW 3.5 mph - N/A   Clear
10:55 PM 2.3 °F -5.2 °F -6.3 °F 67% 30.06 in 10.0 mi NNW 3.5 mph - N/A   Clear
11:15 PM 2.3 °F -5.2 °F -6.2 °F 68% 30.07 in 10.0 mi NNW 3.5 mph - N/A   Clear
11:35 PM 1.9 °F -5.6 °F -6.3 °F 68% 30.06 in 10.0 mi NW 3.5 mph - N/A   Clear
11:56 PM 1.8 °F - -6.7 °F 68% 30.07 in 10.0 mi Calm Calm - N/A   Clear